Regional Weather Roundup
Issued by NWS New Orleans/Baton Rouge, LA

Home | Current Version | Previous Version | Text Only | Print | Product List | Glossary On
Versions: 1 2 3 4 5 6 7 8 9 10 11 12 13 14 15 16 17 18 19 20 21 22 23 24 25 26 27
000
ASUS44 KLIX 280106
RWRLIX
NEW ORLEANS REGIONAL WEATHER ROUNDUP
NATIONAL WEATHER SERVICE NEW ORLEANS LA
800 PM CDT SUN MAY 27 2018

NOTE: "FAIR" INDICATES FEW OR NO CLOUDS BELOW 12,000 FEET WITH NO
      SIGNIFICANT WEATHER AND/OR OBSTRUCTIONS TO VISIBILITY.
      SKY/WX - SKY CONDITION AND SIGNIFICANT WEATHER.
      TMP - AIR TEMPERATURE.     DP    - DEWPOINT TEMPERATURE.
      RH  - RELATIVE HUMIDITY.   PRES  - PRESSURE.
      HI  - HEAT INDEX.          WCI   - WIND CHILL INDEX.

*  THESE STATIONS ARE NOT NWS OR FAA STATIONS AND ARE NOT UNDER
   NWS QUALITY CONTROL.

LAZ038-040-048-061>063-065>067-069-280200-
SOUTHEAST LOUISIANA

CITY           SKY/WX    TMP DP  RH WIND       PRES   REMARKS
N.O. INTL ARPT FAIR      84  74  71 NW3       29.77R
N.O. LAKEFRONT FAIR      86  70  58 N13       29.77R
N.O. DOWNTOWN* FAIR      85  70  60 NE6       29.78R
RESERVE*         N/A     83  72  69 CALM      29.78R
SLIDELL        FAIR      82  69  64 CALM      29.77R
BATON ROUGE    FAIR      81  70  69 CALM      29.79R
BOOTHVILLE     FAIR      83  73  72 NW5       29.75S
BELLE CHASSE   FAIR      82  71  69 N5        29.76R
BOGALUSA*      FAIR      84  66  53 NE3       29.79R
GALLIANO*      FAIR      79  71  76 CALM      29.77R
NEW ROADS*     FAIR      78  74  86 CALM      29.80R
GONZALES*      FAIR      79  73  83 CALM      29.78R
HAMMOND*       FAIR      82  68  61 NE3       29.78R
HOUMA*         FAIR      80  73  79 W3        29.77S
PORT FOURCHON* CLEAR     84  70  61 VRB3      29.77R

$$

MSZ070-080>082-280200-
SOUTHERN MISSISSIPPI

CITY           SKY/WX    TMP DP  RH WIND       PRES   REMARKS
MCCOMB         FAIR      84  67  56 N3        29.80R
GULFPORT       FAIR      84  68  58 N6        29.75R
BILOXI         FAIR      84  68  59 NE9       29.76R
PASCAGOULA     LGT RAIN  77  66  68 MISG      29.77R
STENNIS ARPT*  CLEAR     81  70  69 N6        29.77R

$$

COASTAL OBSERVATIONS
LAKE AND NEARSHORE STATIONS

STATION/POSITION TIME  SKY/WX   TEMP    WIND        PRES    WAVE
                                AIR SEA DIR/SP/G            HT/PER
                 (UTC)          (F)     (DEG/KT/KT) (MB)    (FT/S)
WAVELAND YACHT   0042            84 85  360/ 11/ 13 1007.6
GRAND ISLE       0042            84 85   10/  7/ 10 1007.6
SOUTHWEST PASS   0042               78  350/ 10/ 12 1007.8
NEW CANAL        0042            85 86  330/  2/  3 1007.9
SHELL BEACH      0042            84 88  340/ 11/ 12 1007.7

OFFSHORE STATIONS

STATION/POSITION TIME  SKY/WX   TEMP    WIND        PRES    WAVE
                                AIR SEA DIR/SP/G            HT/PER
                 (UTC)          (F)     (DEG/KT/KT) (MB)    (FT/S)
64 S DAUPHIN ISL 0050               80   30/ 19/ 27 1006.3    7/ 8

$$





USA.gov is the U.S. government's official web portal to all federal, state and local government web resources and services.